Miscellaneous Local Product
Issued by NWS Hastings, NE

Home | Current Version | Previous Version | Graphics & Text | Print | Product List | Glossary On
Versions: 1 2 3 4 5 6 7 8 9 10 11 12 13 14 15 16 17 18 19 20 21 22 23 24 25 26 27 28 29 30 31 32 33 34 35 36 37 38 39 40 41 42 43 44 45 46 47 48 49 50
000
AXUS43 KGID 160802
MISGRI

GID CWA HOURLY WEATHER ROUNDUP
NATIONAL WEATHER SERVICE HASTINGS NE
300 AM CDT WED APR 16 2014

NOTE: "FAIR" INDICATES FEW OR NO CLOUDS BELOW 12,000 FEET WITH NO
SIGNIFICANT WEATHER AND/OR OBSTRUCTIONS TO VISIBILITY.

...SOUTH CENTRAL NEBRASKA...

CITY           SKY/WX    TMP DP  RH WIND       PRES   REMARKS
GRAND ISLAND   PTCLDY    48  23  37 S21G31    29.65F
HASTINGS       PTCLDY    48  22  35 S15G23    29.67F
ORD            MOCLDY    47  25  42 SW20      29.59F
YORK           MOCLDY    46  23  39 S21G29    29.70F
AURORA         MOCLDY    47  23  38 S17G23    29.68F
LEXINGTON      CLOUDY    48  27  45 S16G22    29.60F
HOLDREGE       MOCLDY    44  26  47 S15       29.64F
HEBRON         PTCLDY    48  17  28 S21G29    29.74F

...NEBRASKA PANHANDLE...

CITY           SKY/WX    TMP DP  RH WIND       PRES   REMARKS
CHADRON        MOCLDY    46  38  73 N10       29.62R
ALLIANCE       CLOUDY    53  28  38 W25G35    29.57F
SCOTTSBLUFF    CLOUDY    51  33  50 W23G40    29.61R
SIDNEY         CLOUDY    49  30  48 W28G33    29.65R

...WESTERN AND NORTH CENTRAL NEBRASKA...

CITY           SKY/WX    TMP DP  RH WIND       PRES   REMARKS
VALENTINE      CLOUDY    57  29  34 W16       29.49F
AINSWORTH      CLOUDY    53  28  39 S14       29.51F
ONEILL         CLOUDY    52  25  35 SW10      29.57S
BROKEN BOW     MOCLDY    46  27  47 S12       29.58F
IMPERIAL       CLOUDY    42  28  57 S7        29.58F
NORTH PLATTE   CLOUDY    48  27  44 S9        29.57F
MCCOOK         CLOUDY    48  24  39 S16G23    29.59F

...EASTERN NEBRASKA...

CITY           SKY/WX    TMP DP  RH WIND       PRES   REMARKS
NORFOLK        CLOUDY    49  23  36 S20G31    29.63F
SO SIOUX CITY  CLOUDY    46  30  53 SE17      29.70F
TEKAMAH        CLOUDY    48  29  47 S23       29.75F
COLUMBUS       CLOUDY    48  21  34 S23G31    29.68F
ALBION         CLOUDY    47  24  41 S18G25    29.63F
OMAHA EPPLEY   CLOUDY    46  29  51 S22G35    29.79F
OFFUTT AFB     MOCLDY    44  32  63 SE14      29.81F
MILLARD        MOCLDY    45  29  54 SE13G18   29.80F
LINCOLN        PTCLDY    49  22  34 S24G37    29.75F
NEBRASKA CITY  CLEAR     44  30  59 S15       29.84F
BEATRICE       CLEAR     47  24  39 S22G28    29.78F
FALLS CITY     CLEAR     46  29  51 S18       29.87F

...NORTHERN KANSAS...

CITY           SKY/WX    TMP DP  RH WIND       PRES   REMARKS
GOODLAND       CLOUDY    45  24  43 S17       29.62S
HILL CITY      PTCLDY    49  17  28 S16G23    29.66F
PHILLIPSBURG   CLEAR     52  18  25 S20G25    29.66F
SMITH CENTER   CLEAR     48  19  32 S17G24    29.70F
BELOIT         CLEAR     52  18  25 SE21      29.74F
HAYS           CLEAR     48  18  29 S20G26    29.72F
RUSSELL        CLEAR     51  16  24 S28G36    29.71F
CONCORDIA      CLEAR     48  17  29 S23G31    29.75F
SALINA         CLEAR     50  19  29 S18G26    29.81F
TOPEKA         PTCLDY    48  28  46 SE14      29.94F



USA.gov is the U.S. government's official web portal to all federal, state and local government web resources and services.